Location: Clermont
(50.2608°N, 4.3172°E)
Time: 10:44:32
(UTC+00:00)

Cosmos 841 Rocket - Pass Details

Date: 13 August 2020
Orbit: 746 x 773 km, 74.0° (Epoch: 20 September)

Event Time Altitude Azimuth Distance (km) Brightness Sun altitude
Rises 21:37:57 0° 333° (NNW) 3,234 8.4 -19.5°
Reaches altitude 10° 21:40:21 10° 330° (NNW) 2,308 7.2 -19.7°
Maximum altitude 21:45:29 59° 252° (WSW) 886 3.8 -20.1°
Enters shadow 21:47:36 34° 188° (S) 1,246 4.2 -20.3°
